BEIDOU-3 M5 (43207 NORAD) Tracking and Keplerian Element Data

This shows tracking and keplerian element data for the satellite.

Feedback or suggestion? Click here.




ElementValue
Catalog43207
NameBEIDOU-3 M5
Epoch Orbit53
Epoch Day71.99851588
Epoch Year2018
RAAN164.1738
Inclination54.9856
Eccentricity0.0006941
Argument of Perigee313.3119
Mean Anonmoly46.6498
Mean Motion1.86231876
Decay Rate-3.5E-07
L11 43207U 18018A 18071.99851588 -.00000035 00000-0 00000+0 0 9992
L22 43207 54.9856 164.1738 0006941 313.3119 46.6498 1.86231876 533

Live tracking and technical data element details for BEIDOU-3 M5 (NORAD 43207). BEIDOU-3 M5 can be tracked NOW for your location showing map with azimuth and elevation plus other details from your city location.

Track the satellite on the map from your city or location and see movement details for azimuth, elevation, latitude, longitude, range, height, and movement on the map or in text.







IsCatalogInMostPopularTable: catalog: 43207, numindb: 144
Update: records affected: 1



GetName: 43207 BEIDOU-3 M5

Hit Count: updated at: Mon, 19 Nov 2018 13:43:34 GMT